| time (UTC) | temp F | wind direction | speed knots | gust knots | rain 1hr in | rain 24hr in | rain mn in | humidity % | barometer mb |
| 20260510215034 | 70 | 232 | 2.6 | 9.6 | 0.00 | 0.00 | 0.00 | 73 | 1013.8 |
| 20260510214545 | 70 | 208 | 3.5 | 7.8 | 0.00 | 0.00 | 0.00 | 74 | 1013.7 |
| 20260510214032 | 70 | 249 | 3.5 | 7.8 | 0.00 | 0.00 | 0.00 | 74 | 1013.8 |
| 20260510213535 | 70 | 213 | 3.5 | 9.6 | 0.00 | 0.00 | 0.00 | 75 | 1013.8 |
| 20260510213045 | 70 | 267 | 3.5 | 9.6 | 0.00 | 0.00 | 0.00 | 74 | 1013.8 |
| 20260510212531 | 70 | 229 | 3.5 | 7.8 | 0.00 | 0.00 | 0.00 | 73 | 1013.8 |
| 20260510212036 | 70 | 220 | 3.5 | 7.0 | 0.00 | 0.00 | 0.00 | 73 | 1013.8 |
| 20260510211543 | 70 | 281 | 2.6 | 7.0 | 0.00 | 0.00 | 0.00 | 75 | 1013.9 |
| 20260510211032 | 70 | 233 | 3.5 | 7.0 | 0.00 | 0.00 | 0.00 | 75 | 1013.8 |
| 20260510210531 | 69 | 225 | 2.6 | 8.7 | 0.00 | 0.00 | 0.00 | 75 | 1013.9 |
| 20260510210048 | 69 | 233 | 3.5 | 8.7 | 0.00 | 0.00 | 0.00 | 76 | 1013.9 |
| 20260510205533 | 69 | 223 | 3.5 | 8.7 | 0.00 | 0.00 | 0.00 | 75 | 1013.9 |
| 20260510205031 | 69 | 275 | 3.5 | 8.7 | 0.00 | 0.00 | 0.00 | 75 | 1013.9 |
| 20260510204545 | 70 | 290 | 3.5 | 7.8 | 0.00 | 0.00 | 0.00 | 74 | 1013.9 |
| 20260510204031 | 70 | 293 | 3.5 | 9.6 | 0.00 | 0.00 | 0.00 | 74 | 1013.8 |
| 20260510203535 | 70 | 226 | 3.5 | 9.6 | 0.00 | 0.00 | 0.00 | 74 | 1014.0 |
| 20260510203045 | 70 | 285 | 3.5 | 7.8 | 0.00 | 0.00 | 0.00 | 74 | 1013.9 |
| 20260510202535 | 70 | 198 | 2.6 | 7.0 | 0.00 | 0.00 | 0.00 | 75 | 1014.0 |
| 20260510202034 | 70 | 240 | 2.6 | 7.8 | 0.00 | 0.00 | 0.00 | 74 | 1013.9 |
| 20260510201547 | 70 | 240 | 2.6 | 7.8 | 0.00 | 0.00 | 0.00 | 75 | 1014.0 |
| 20260510201031 | 70 | 236 | 1.7 | 7.0 | 0.00 | 0.00 | 0.00 | 76 | 1013.8 |
| 20260510200534 | 70 | 235 | 3.5 | 7.0 | 0.00 | 0.00 | 0.00 | 76 | 1013.9 |
| 20260510200112 | 69 | 283 | 3.5 | 6.1 | 0.00 | 0.00 | 0.00 | 75 | 1013.9 |
| 20260510195532 | 69 | 248 | 3.5 | 7.0 | 0.00 | 0.00 | 0.00 | 76 | 1013.9 |
| 20260510195031 | 69 | 229 | 3.5 | 7.0 | 0.00 | 0.00 | 0.00 | 76 | 1013.8 |
| 20260510194555 | 69 | 265 | 3.5 | 7.0 | 0.00 | 0.00 | 0.00 | 77 | 1013.8 |
| 20260510194031 | 69 | 277 | 3.5 | 7.8 | 0.00 | 0.00 | 0.00 | 76 | 1013.8 |
| 20260510193531 | 68 | 313 | 3.5 | 7.8 | 0.00 | 0.00 | 0.00 | 76 | 1013.9 |
| 20260510193056 | 68 | 275 | 2.6 | 7.8 | 0.00 | 0.00 | 0.00 | 77 | 1013.9 |
| 20260510192531 | 68 | 279 | 3.5 | 7.8 | 0.00 | 0.00 | 0.00 | 77 | 1013.9 |
| 20260510192034 | 68 | 275 | 4.3 | 7.8 | 0.00 | 0.00 | 0.00 | 77 | 1013.9 |
| 20260510191555 | 68 | 239 | 4.3 | 8.7 | 0.00 | 0.00 | 0.00 | 76 | 1014.0 |
| 20260510191031 | 68 | 240 | 3.5 | 8.7 | 0.00 | 0.00 | 0.00 | 77 | 1013.9 |
| 20260510190538 | 68 | 295 | 2.6 | 7.8 | 0.00 | 0.00 | 0.00 | 78 | 1013.8 |
| 20260510190043 | 67 | 272 | 2.6 | 7.8 | 0.00 | 0.00 | 0.00 | 79 | 1013.9 |
| 20260510185535 | 67 | 246 | 3.5 | 7.8 | 0.00 | 0.00 | 0.00 | 78 | 1013.9 |
| 20260510185033 | 67 | 304 | 2.6 | 6.1 | 0.00 | 0.00 | 0.00 | 79 | 1013.8 |
| 20260510184547 | 67 | 277 | 2.6 | 7.0 | 0.00 | 0.00 | 0.00 | 79 | 1013.9 |
| 20260510184031 | 67 | 274 | 2.6 | 7.0 | 0.00 | 0.00 | 0.00 | 79 | 1013.8 |
| 20260510183531 | 67 | 287 | 3.5 | 7.0 | 0.00 | 0.00 | 0.00 | 80 | 1013.8 |
| 20260510183055 | 67 | 223 | 2.6 | 7.0 | 0.00 | 0.00 | 0.00 | 80 | 1013.8 |
| 20260510182531 | 66 | 233 | 2.6 | 6.1 | 0.00 | 0.00 | 0.00 | 80 | 1013.8 |
| 20260510182037 | 66 | 283 | 2.6 | 7.0 | 0.00 | 0.00 | 0.00 | 81 | 1013.8 |
| 20260510181552 | 66 | 261 | 2.6 | 7.0 | 0.00 | 0.00 | 0.00 | 80 | 1013.8 |
| 20260510181035 | 66 | 244 | 2.6 | 7.0 | 0.00 | 0.00 | 0.00 | 80 | 1013.8 |
| 20260510180532 | 66 | 273 | 2.6 | 7.0 | 0.00 | 0.00 | 0.00 | 81 | 1013.8 |
| 20260510180045 | 66 | 239 | 2.6 | 7.0 | 0.00 | 0.00 | 0.00 | 81 | 1013.8 |
| 20260510175534 | 66 | 211 | 1.7 | 7.0 | 0.00 | 0.00 | 0.00 | 82 | 1013.7 |
| 20260510175035 | 65 | 263 | 2.6 | 7.0 | 0.00 | 0.00 | 0.00 | 82 | 1013.7 |
| 20260510174548 | 65 | 275 | 2.6 | 7.0 | 0.00 | 0.00 | 0.00 | 81 | 1013.7 |
| 20260510174034 | 65 | 253 | 2.6 | 7.0 | 0.00 | 0.00 | 0.00 | 81 | 1013.8 |
| 20260510173534 | 66 | 269 | 3.5 | 7.0 | 0.00 | 0.00 | 0.00 | 82 | 1013.8 |
| 20260510173056 | 65 | 292 | 2.6 | 7.8 | 0.00 | 0.00 | 0.00 | 82 | 1013.8 |
| 20260510172533 | 65 | 220 | 2.6 | 7.8 | 0.00 | 0.00 | 0.00 | 82 | 1013.8 |
| 20260510172032 | 66 | 196 | 2.6 | 7.8 | 0.00 | 0.00 | 0.00 | 83 | 1013.8 |
| 20260510171554 | 65 | 222 | 1.7 | 7.0 | 0.00 | 0.00 | 0.00 | 83 | 1013.7 |
| 20260510171034 | 65 | 293 | 1.7 | 7.0 | 0.00 | 0.00 | 0.00 | 82 | 1013.7 |
| 20260510170531 | 65 | 313 | 1.7 | 6.1 | 0.00 | 0.00 | 0.00 | 83 | 1013.7 |
| 20260510170050 | 65 | 231 | 1.7 | 6.1 | 0.00 | 0.00 | 0.00 | 83 | 1013.6 |
| 20260510165531 | 64 | 222 | 2.6 | 6.1 | 0.00 | 0.00 | 0.00 | 84 | 1013.6 |
| 20260510165031 | 64 | 263 | 2.6 | 4.3 | 0.00 | 0.00 | 0.00 | 84 | 1013.5 |
| 20260510164547 | 64 | 219 | 0.9 | 4.3 | 0.00 | 0.00 | 0.00 | 85 | 1013.5 |
| 20260510164032 | 64 | 261 | 1.7 | 4.3 | 0.00 | 0.00 | 0.00 | 85 | 1013.5 |
| 20260510163533 | 63 | 303 | 0.9 | 3.5 | 0.00 | 0.00 | 0.00 | 85 | 1013.4 |
| 20260510163044 | 63 | 320 | 0.9 | 4.3 | 0.00 | 0.00 | 0.00 | 85 | 1013.5 |
| 20260510162532 | 63 | 278 | 0.9 | 5.2 | 0.00 | 0.00 | 0.00 | 85 | 1013.5 |
| 20260510162032 | 63 | 303 | 1.7 | 5.2 | 0.00 | 0.00 | 0.00 | 86 | 1013.5 |
| 20260510161547 | 63 | 315 | 0.9 | 3.5 | 0.00 | 0.00 | 0.00 | 86 | 1013.4 |
| 20260510161032 | 63 | 352 | 0.0 | 2.6 | 0.00 | 0.00 | 0.00 | 86 | 1013.3 |
| 20260510160535 | 63 | 248 | 0.9 | 2.6 | 0.00 | 0.00 | 0.00 | 86 | 1013.3 |
| 20260510160050 | 62 | 268 | 0.9 | 2.6 | 0.00 | 0.00 | 0.00 | 87 | 1013.3 |
| 20260510155533 | 62 | 0 | 0.9 | 2.6 | 0.00 | 0.00 | 0.00 | 87 | 1013.2 |
| 20260510155033 | 62 | 235 | 0.9 | 2.6 | 0.00 | 0.00 | 0.00 | 87 | 1013.2 |
| 20260510154547 | 62 | 0 | 0.0 | 2.6 | 0.00 | 0.00 | 0.00 | 87 | 1013.2 |
| 20260510154032 | 62 | 324 | 0.0 | 1.7 | 0.00 | 0.00 | 0.00 | 88 | 1013.1 |
| 20260510153532 | 62 | 0 | 0.0 | 1.7 | 0.00 | 0.00 | 0.00 | 87 | 1013.2 |
| 20260510153045 | 61 | 0 | 0.0 | 1.7 | 0.00 | 0.00 | 0.00 | 87 | 1013.2 |
| 20260510152536 | 61 | 285 | 0.0 | 1.7 | 0.00 | 0.00 | 0.00 | 88 | 1013.2 |
| 20260510152034 | 61 | 0 | 0.0 | 2.6 | 0.00 | 0.00 | 0.00 | 88 | 1013.2 |
| 20260510151545 | 61 | 308 | 0.9 | 2.6 | 0.00 | 0.00 | 0.00 | 88 | 1013.2 |
| 20260510151032 | 61 | 310 | 0.0 | 2.6 | 0.00 | 0.00 | 0.00 | 88 | 1013.1 |
| 20260510150532 | 61 | 352 | 0.9 | 2.6 | 0.00 | 0.00 | 0.00 | 88 | 1013.0 |
| 20260510150045 | 61 | 313 | 0.9 | 2.6 | 0.00 | 0.00 | 0.00 | 88 | 1013.0 |
| 20260510145531 | 61 | 294 | 0.0 | 2.6 | 0.00 | 0.00 | 0.00 | 88 | 1013.1 |
| 20260510145031 | 61 | 0 | 0.0 | 1.7 | 0.00 | 0.00 | 0.00 | 88 | 1013.1 |
| 20260510144551 | 61 | 0 | 0.0 | 1.7 | 0.00 | 0.00 | 0.00 | 88 | 1013.1 |
| 20260510144035 | 61 | 157 | 0.0 | 0.9 | 0.00 | 0.00 | 0.00 | 88 | 1013.0 |
| 20260510143532 | 60 | 0 | 0.0 | 1.7 | 0.00 | 0.00 | 0.00 | 88 | 1013.0 |
| 20260510143047 | 61 | 0 | 0.0 | 1.7 | 0.00 | 0.00 | 0.00 | 88 | 1012.9 |
| 20260510142531 | 60 | 0 | 0.0 | 1.7 | 0.00 | 0.00 | 0.00 | 88 | 1012.9 |
| 20260510142035 | 60 | 328 | 0.0 | 2.6 | 0.00 | 0.00 | 0.00 | 88 | 1012.9 |
| 20260510141555 | 60 | 332 | 0.0 | 2.6 | 0.00 | 0.00 | 0.00 | 88 | 1012.9 |
| 20260510141032 | 60 | 0 | 0.0 | 1.7 | 0.00 | 0.00 | 0.00 | 88 | 1012.8 |
| 20260510140532 | 60 | 0 | 0.0 | 2.6 | 0.00 | 0.00 | 0.00 | 88 | 1012.8 |
| 20260510140052 | 60 | 0 | 0.0 | 2.6 | 0.00 | 0.00 | 0.00 | 88 | 1012.7 |
| 20260510135532 | 60 | 20 | 0.0 | 2.6 | 0.00 | 0.00 | 0.00 | 88 | 1012.7 |
| 20260510135032 | 60 | 0 | 0.0 | 0.9 | 0.00 | 0.00 | 0.00 | 88 | 1012.7 |
| 20260510134555 | 60 | 0 | 0.0 | 0.0 | 0.00 | 0.00 | 0.00 | 88 | 1012.6 |
| 20260510134031 | 60 | 0 | 0.0 | 0.0 | 0.00 | 0.00 | 0.00 | 88 | 1012.6 |
| 20260510133531 | 60 | 0 | 0.0 | 0.9 | 0.00 | 0.00 | 0.00 | 88 | 1012.5 |
| 20260510133100 | 60 | 0 | 0.0 | 1.7 | 0.00 | 0.00 | 0.00 | 88 | 1012.5 |
| 20260510132531 | 60 | 0 | 0.0 | 1.7 | 0.00 | 0.00 | 0.00 | 87 | 1012.5 |
| 20260510132032 | 60 | 0 | 0.0 | 1.7 | 0.00 | 0.00 | 0.00 | 87 | 1012.5 |
| 20260510131601 | 60 | 0 | 0.0 | 1.7 | 0.00 | 0.00 | 0.00 | 87 | 1012.4 |
| 20260510131031 | 60 | 183 | 0.0 | 1.7 | 0.00 | 0.00 | 0.00 | 87 | 1012.4 |
| 20260510130533 | 60 | 0 | 0.0 | 1.7 | 0.00 | 0.00 | 0.00 | 87 | 1012.4 |
| 20260510130048 | 60 | 0 | 0.0 | 1.7 | 0.00 | 0.00 | 0.00 | 87 | 1012.4 |
| 20260510125531 | 60 | 0 | 0.0 | 1.7 | 0.00 | 0.00 | 0.00 | 87 | 1012.3 |
| 20260510125031 | 60 | 0 | 0.0 | 0.9 | 0.00 | 0.00 | 0.00 | 87 | 1012.4 |
| 20260510124543 | 60 | 0 | 0.0 | 2.6 | 0.00 | 0.00 | 0.00 | 87 | 1012.3 |
| 20260510124031 | 60 | 0 | 0.0 | 2.6 | 0.00 | 0.00 | 0.00 | 87 | 1012.4 |
| 20260510123533 | 60 | 360 | 0.0 | 2.6 | 0.00 | 0.00 | 0.00 | 87 | 1012.3 |
| 20260510123059 | 60 | 0 | 0.0 | 2.6 | 0.00 | 0.00 | 0.00 | 87 | 1012.4 |
| 20260510122533 | 60 | 0 | 0.0 | 2.6 | 0.00 | 0.00 | 0.00 | 87 | 1012.3 |
| 20260510122033 | 60 | 0 | 0.0 | 0.9 | 0.00 | 0.00 | 0.00 | 87 | 1012.3 |
| 20260510121541 | 60 | 0 | 0.0 | 0.9 | 0.00 | 0.00 | 0.00 | 87 | 1012.3 |
| 20260510121033 | 60 | 0 | 0.0 | 0.9 | 0.00 | 0.00 | 0.00 | 87 | 1012.3 |
| 20260510120530 | 60 | 0 | 0.0 | 0.9 | 0.00 | 0.00 | 0.00 | 87 | 1012.4 |
| 20260510120048 | 60 | 0 | 0.0 | 1.7 | 0.00 | 0.00 | 0.00 | 87 | 1012.3 |
| 20260510115534 | 61 | 0 | 0.0 | 1.7 | 0.00 | 0.00 | 0.00 | 87 | 1012.3 |
| 20260510115033 | 61 | 0 | 0.0 | 0.9 | 0.00 | 0.00 | 0.00 | 87 | 1012.2 |
| 20260510114548 | 61 | 0 | 0.0 | 0.9 | 0.00 | 0.00 | 0.00 | 88 | 1012.2 |
| 20260510114036 | 61 | 0 | 0.0 | 0.9 | 0.00 | 0.00 | 0.00 | 88 | 1012.3 |
| 20260510113534 | 61 | 0 | 0.0 | 0.9 | 0.00 | 0.00 | 0.00 | 88 | 1012.3 |
| 20260510113052 | 61 | 0 | 0.0 | 0.9 | 0.00 | 0.00 | 0.00 | 88 | 1012.2 |
| 20260510112534 | 61 | 0 | 0.0 | 0.9 | 0.00 | 0.00 | 0.00 | 88 | 1012.3 |
| 20260510112034 | 60 | 0 | 0.0 | 0.0 | 0.00 | 0.00 | 0.00 | 88 | 1012.3 |
| 20260510111558 | 60 | 0 | 0.0 | 0.9 | 0.00 | 0.00 | 0.00 | 88 | 1012.3 |
| 20260510111030 | 60 | 0 | 0.0 | 0.9 | 0.00 | 0.00 | 0.00 | 88 | 1012.3 |
| 20260510110530 | 61 | 0 | 0.0 | 0.9 | 0.00 | 0.00 | 0.00 | 88 | 1012.3 |
| 20260510110048 | 60 | 0 | 0.0 | 0.9 | 0.00 | 0.00 | 0.00 | 88 | 1012.4 |
| 20260510105531 | 60 | 0 | 0.0 | 0.9 | 0.00 | 0.00 | 0.00 | 88 | 1012.4 |
| 20260510105031 | 60 | 0 | 0.0 | 1.7 | 0.00 | 0.00 | 0.00 | 88 | 1012.5 |
| 20260510104547 | 60 | 348 | 0.0 | 1.7 | 0.00 | 0.00 | 0.00 | 88 | 1012.4 |
| 20260510104030 | 60 | 0 | 0.0 | 1.7 | 0.00 | 0.00 | 0.00 | 88 | 1012.5 |
| 20260510103533 | 60 | 0 | 0.0 | 0.9 | 0.00 | 0.00 | 0.00 | 88 | 1012.4 |
| 20260510103048 | 60 | 0 | 0.0 | 0.0 | 0.00 | 0.00 | 0.00 | 88 | 1012.4 |
| 20260510102530 | 60 | 0 | 0.0 | 0.0 | 0.00 | 0.00 | 0.00 | 88 | 1012.4 |
| 20260510102031 | 60 | 0 | 0.0 | 0.0 | 0.00 | 0.00 | 0.00 | 88 | 1012.4 |
| 20260510101545 | 60 | 0 | 0.0 | 0.0 | 0.00 | 0.00 | 0.00 | 88 | 1012.4 |
| 20260510101033 | 60 | 0 | 0.0 | 1.7 | 0.00 | 0.00 | 0.00 | 88 | 1012.4 |
| 20260510100534 | 60 | 0 | 0.0 | 1.7 | 0.00 | 0.00 | 0.00 | 88 | 1012.5 |
| 20260510100045 | 60 | 216 | 0.0 | 2.6 | 0.00 | 0.00 | 0.00 | 88 | 1012.5 |
| 20260510095534 | 60 | 0 | 0.0 | 3.5 | 0.00 | 0.00 | 0.00 | 88 | 1012.4 |
| 20260510095034 | 60 | 214 | 0.9 | 3.5 | 0.00 | 0.00 | 0.00 | 88 | 1012.5 |
| 20260510094551 | 61 | 225 | 1.7 | 3.5 | 0.00 | 0.00 | 0.00 | 87 | 1012.4 |
| 20260510094032 | 61 | 218 | 0.9 | 3.5 | 0.00 | 0.00 | 0.00 | 87 | 1012.5 |
| 20260510093532 | 61 | 194 | 0.9 | 2.6 | 0.00 | 0.00 | 0.00 | 87 | 1012.6 |
| 20260510093047 | 61 | 224 | 0.0 | 2.6 | 0.00 | 0.00 | 0.00 | 87 | 1012.6 |
| 20260510092534 | 61 | 224 | 0.0 | 2.6 | 0.00 | 0.00 | 0.00 | 87 | 1012.5 |
| 20260510092034 | 61 | 210 | 0.9 | 2.6 | 0.00 | 0.00 | 0.00 | 86 | 1012.6 |
| 20260510091551 | 61 | 0 | 0.9 | 2.6 | 0.00 | 0.00 | 0.00 | 86 | 1012.6 |
| 20260510091033 | 61 | 208 | 0.0 | 1.7 | 0.00 | 0.00 | 0.00 | 86 | 1012.6 |
| 20260510090534 | 61 | 0 | 0.0 | 0.9 | 0.00 | 0.00 | 0.00 | 86 | 1012.6 |
| 20260510090048 | 61 | 0 | 0.0 | 0.0 | 0.00 | 0.00 | 0.00 | 86 | 1012.6 |
| 20260510085532 | 61 | 0 | 0.0 | 0.0 | 0.00 | 0.00 | 0.00 | 86 | 1012.6 |
| 20260510085031 | 61 | 0 | 0.0 | 0.9 | 0.00 | 0.00 | 0.00 | 86 | 1012.7 |
| 20260510084546 | 61 | 0 | 0.0 | 0.9 | 0.00 | 0.00 | 0.00 | 86 | 1012.7 |
| 20260510084034 | 61 | 0 | 0.0 | 1.7 | 0.00 | 0.00 | 0.00 | 86 | 1012.7 |
| 20260510083535 | 61 | 0 | 0.0 | 1.7 | 0.00 | 0.00 | 0.00 | 86 | 1012.8 |
| 20260510083055 | 61 | 0 | 0.0 | 1.7 | 0.00 | 0.00 | 0.00 | 86 | 1012.8 |
| 20260510082531 | 61 | 0 | 0.0 | 0.0 | 0.00 | 0.00 | 0.00 | 86 | 1012.8 |
| 20260510082031 | 61 | 0 | 0.0 | 0.9 | 0.00 | 0.00 | 0.00 | 86 | 1012.9 |
| 20260510081552 | 61 | 0 | 0.0 | 1.7 | 0.00 | 0.00 | 0.00 | 86 | 1012.9 |
| 20260510081035 | 61 | 0 | 0.0 | 1.7 | 0.00 | 0.00 | 0.00 | 86 | 1012.9 |
| 20260510080532 | 62 | 201 | 0.0 | 1.7 | 0.00 | 0.00 | 0.00 | 86 | 1012.9 |
| 20260510080049 | 62 | 202 | 0.0 | 0.9 | 0.00 | 0.00 | 0.00 | 86 | 1012.9 |
| 20260510075531 | 62 | 0 | 0.0 | 0.9 | 0.00 | 0.00 | 0.00 | 86 | 1013.0 |
| 20260510075031 | 62 | 0 | 0.0 | 0.9 | 0.00 | 0.00 | 0.00 | 86 | 1013.0 |
| 20260510074545 | 62 | 0 | 0.0 | 0.9 | 0.00 | 0.00 | 0.00 | 86 | 1013.0 |
| 20260510074034 | 62 | 0 | 0.0 | 0.9 | 0.00 | 0.00 | 0.00 | 86 | 1013.1 |
| 20260510073532 | 62 | 0 | 0.0 | 1.7 | 0.00 | 0.00 | 0.00 | 86 | 1013.1 |
| 20260510073106 | 62 | 0 | 0.0 | 2.6 | 0.00 | 0.00 | 0.00 | 86 | 1013.2 |
| 20260510072531 | 62 | 0 | 0.0 | 2.6 | 0.00 | 0.00 | 0.00 | 86 | 1013.1 |
| 20260510072031 | 62 | 0 | 0.0 | 1.7 | 0.00 | 0.00 | 0.00 | 86 | 1013.2 |
| 20260510071601 | 62 | 0 | 0.0 | 1.7 | 0.00 | 0.00 | 0.00 | 86 | 1013.3 |
| 20260510071031 | 62 | 0 | 0.0 | 0.9 | 0.00 | 0.00 | 0.00 | 86 | 1013.2 |
| 20260510070530 | 62 | 0 | 0.0 | 0.9 | 0.00 | 0.00 | 0.00 | 86 | 1013.2 |
| 20260510070052 | 62 | 0 | 0.0 | 0.9 | 0.00 | 0.00 | 0.00 | 86 | 1013.2 |
| 20260510065534 | 62 | 0 | 0.0 | 0.9 | 0.00 | 0.00 | 0.00 | 86 | 1013.3 |
| 20260510065031 | 62 | 0 | 0.0 | 0.9 | 0.00 | 0.00 | 0.00 | 86 | 1013.3 |
| 20260510064556 | 62 | 0 | 0.0 | 0.9 | 0.00 | 0.00 | 0.00 | 86 | 1013.4 |
| 20260510064031 | 62 | 0 | 0.0 | 1.7 | 0.00 | 0.00 | 0.00 | 86 | 1013.4 |
| 20260510063534 | 62 | 0 | 0.0 | 1.7 | 0.00 | 0.00 | 0.00 | 86 | 1013.4 |
| 20260510063049 | 62 | 0 | 0.0 | 1.7 | 0.00 | 0.00 | 0.00 | 86 | 1013.4 |
| 20260510062531 | 61 | 0 | 0.0 | 1.7 | 0.00 | 0.00 | 0.00 | 86 | 1013.4 |
| 20260510062031 | 61 | 0 | 0.0 | 0.9 | 0.00 | 0.00 | 0.00 | 87 | 1013.4 |
| 20260510061546 | 61 | 0 | 0.0 | 2.6 | 0.00 | 0.00 | 0.00 | 86 | 1013.4 |
| 20260510061032 | 61 | 0 | 0.0 | 4.3 | 0.00 | 0.00 | 0.00 | 86 | 1013.4 |
| 20260510060532 | 61 | 220 | 1.7 | 4.3 | 0.00 | 0.00 | 0.00 | 86 | 1013.4 |
| 20260510060045 | 62 | 226 | 1.7 | 4.3 | 0.00 | 0.00 | 0.00 | 86 | 1013.3 |
| 20260510055532 | 62 | 214 | 0.9 | 2.6 | 0.00 | 0.00 | 0.00 | 86 | 1013.3 |
| 20260510055034 | 62 | 207 | 0.0 | 1.7 | 0.00 | 0.00 | 0.00 | 86 | 1013.3 |
| 20260510054545 | 62 | 223 | 0.0 | 0.9 | 0.00 | 0.00 | 0.00 | 86 | 1013.3 |
| 20260510054035 | 62 | 0 | 0.0 | 0.9 | 0.00 | 0.00 | 0.00 | 86 | 1013.3 |
| 20260510053555 | 62 | 0 | 0.0 | 0.9 | 0.00 | 0.00 | 0.00 | 86 | 1013.4 |
| 20260510053050 | 61 | 0 | 0.0 | 3.5 | 0.00 | 0.00 | 0.00 | 86 | 1013.4 |
| 20260510052535 | 62 | 0 | 0.0 | 3.5 | 0.00 | 0.00 | 0.00 | 86 | 1013.4 |
| 20260510052038 | 62 | 217 | 0.9 | 2.6 | 0.00 | 0.00 | 0.00 | 86 | 1013.4 |
| 20260510051549 | 62 | 213 | 0.0 | 2.6 | 0.00 | 0.00 | 0.00 | 86 | 1013.4 |
| 20260510051037 | 62 | 0 | 0.0 | 2.6 | 0.00 | 0.00 | 0.00 | 86 | 1013.4 |
| 20260510050535 | 62 | 254 | 0.9 | 2.6 | 0.00 | 0.00 | 0.00 | 86 | 1013.4 |
| 20260510050051 | 62 | 286 | 0.0 | 1.7 | 0.00 | 0.00 | 0.00 | 86 | 1013.4 |
| 20260510045535 | 62 | 0 | 0.0 | 2.6 | 0.00 | 0.00 | 0.00 | 86 | 1013.3 |
| 20260510045040 | 62 | 0 | 0.0 | 2.6 | 0.00 | 0.00 | 0.00 | 86 | 1013.3 |
| 20260510044551 | 62 | 278 | 0.0 | 2.6 | 0.00 | 0.00 | 0.00 | 86 | 1013.3 |
| 20260510044036 | 62 | 277 | 0.9 | 2.6 | 0.00 | 0.00 | 0.00 | 86 | 1013.2 |
| 20260510043536 | 62 | 252 | 0.0 | 2.6 | 0.00 | 0.00 | 0.00 | 86 | 1013.2 |
| 20260510043106 | 62 | 252 | 0.9 | 2.6 | 0.00 | 0.00 | 0.00 | 86 | 1013.2 |
| 20260510042531 | 62 | 0 | 0.0 | 1.7 | 0.00 | 0.00 | 0.00 | 86 | 1013.2 |
| 20260510042036 | 62 | 0 | 0.0 | 1.7 | 0.00 | 0.00 | 0.00 | 86 | 1013.1 |
| 20260510041555 | 62 | 278 | 0.0 | 1.7 | 0.00 | 0.00 | 0.00 | 86 | 1013.1 |
| 20260510041037 | 62 | 0 | 0.9 | 1.7 | 0.00 | 0.00 | 0.00 | 86 | 1013.0 |
| 20260510040536 | 62 | 278 | 0.0 | 0.9 | 0.00 | 0.00 | 0.00 | 86 | 1013.0 |
| 20260510040057 | 62 | 0 | 0.0 | 1.7 | 0.00 | 0.00 | 0.00 | 86 | 1012.9 |
| 20260510035535 | 62 | 0 | 0.0 | 1.7 | 0.00 | 0.00 | 0.00 | 86 | 1012.9 |
| 20260510035035 | 62 | 278 | 0.9 | 2.6 | 0.00 | 0.00 | 0.00 | 86 | 1012.9 |
| 20260510034550 | 62 | 0 | 0.0 | 2.6 | 0.00 | 0.00 | 0.00 | 86 | 1012.9 |
| 20260510034036 | 62 | 243 | 0.9 | 2.6 | 0.00 | 0.00 | 0.00 | 86 | 1012.8 |
| 20260510033535 | 62 | 285 | 0.9 | 2.6 | 0.00 | 0.00 | 0.00 | 86 | 1012.8 |
| 20260510033052 | 62 | 307 | 0.9 | 2.6 | 0.00 | 0.00 | 0.00 | 86 | 1012.7 |
| 20260510032539 | 62 | 0 | 1.7 | 2.6 | 0.00 | 0.00 | 0.00 | 86 | 1012.7 |
| 20260510032037 | 62 | 288 | 0.0 | 1.7 | 0.00 | 0.00 | 0.00 | 85 | 1012.6 |
| 20260510031555 | 62 | 292 | 0.9 | 1.7 | 0.00 | 0.00 | 0.00 | 85 | 1012.5 |
| 20260510031034 | 62 | 0 | 0.0 | 1.7 | 0.00 | 0.00 | 0.00 | 85 | 1012.5 |
| 20260510030534 | 62 | 0 | 0.0 | 1.7 | 0.00 | 0.00 | 0.00 | 85 | 1012.5 |
| 20260510030053 | 62 | 0 | 0.0 | 2.6 | 0.00 | 0.00 | 0.00 | 85 | 1012.4 |
| 20260510025534 | 62 | 0 | 0.0 | 2.6 | 0.00 | 0.00 | 0.00 | 84 | 1012.4 |
| 20260510025035 | 62 | 234 | 0.9 | 2.6 | 0.00 | 0.00 | 0.00 | 84 | 1012.4 |
| 20260510024551 | 62 | 230 | 0.9 | 3.5 | 0.00 | 0.00 | 0.00 | 84 | 1012.3 |
| 20260510024035 | 62 | 230 | 0.0 | 3.5 | 0.00 | 0.00 | 0.00 | 84 | 1012.3 |
| 20260510023539 | 62 | 251 | 1.7 | 3.5 | 0.00 | 0.00 | 0.00 | 83 | 1012.2 |
| 20260510023049 | 62 | 219 | 0.9 | 4.3 | 0.00 | 0.00 | 0.00 | 83 | 1012.2 |
| 20260510022535 | 63 | 219 | 1.7 | 4.3 | 0.00 | 0.00 | 0.00 | 82 | 1012.2 |
| 20260510022035 | 63 | 284 | 0.0 | 3.5 | 0.00 | 0.00 | 0.00 | 82 | 1012.2 |
| 20260510021545 | 63 | 253 | 0.9 | 3.5 | 0.00 | 0.00 | 0.00 | 82 | 1012.2 |
| 20260510021035 | 64 | 296 | 0.9 | 3.5 | 0.00 | 0.00 | 0.00 | 81 | 1012.2 |
| 20260510020535 | 64 | 291 | 0.9 | 5.2 | 0.00 | 0.00 | 0.00 | 81 | 1012.2 |
| 20260510020045 | 64 | 249 | 1.7 | 5.2 | 0.00 | 0.00 | 0.00 | 80 | 1012.2 |
| 20260510015532 | 64 | 277 | 1.7 | 5.2 | 0.00 | 0.00 | 0.00 | 80 | 1012.2 |
| 20260510015036 | 65 | 254 | 0.9 | 3.5 | 0.00 | 0.00 | 0.00 | 80 | 1012.2 |
| 20260510014542 | 65 | 290 | 1.7 | 5.2 | 0.00 | 0.00 | 0.00 | 80 | 1012.2 |
| 20260510014034 | 65 | 279 | 1.7 | 5.2 | 0.00 | 0.00 | 0.00 | 79 | 1012.3 |
| 20260510013536 | 65 | 286 | 1.7 | 5.2 | 0.00 | 0.00 | 0.00 | 78 | 1012.2 |
| 20260510013047 | 66 | 274 | 1.7 | 5.2 | 0.00 | 0.00 | 0.00 | 78 | 1012.2 |
| 20260510012535 | 66 | 269 | 0.9 | 5.2 | 0.00 | 0.00 | 0.00 | 78 | 1012.2 |
| 20260510012036 | 66 | 241 | 1.7 | 5.2 | 0.00 | 0.00 | 0.00 | 77 | 1012.1 |
| 20260510011549 | 67 | 264 | 1.7 | 5.2 | 0.00 | 0.00 | 0.00 | 77 | 1012.2 |
| 20260510011036 | 67 | 265 | 1.7 | 5.2 | 0.00 | 0.00 | 0.00 | 77 | 1012.2 |
| 20260510010535 | 67 | 254 | 1.7 | 5.2 | 0.00 | 0.00 | 0.00 | 77 | 1012.3 |
| 20260510010048 | 67 | 294 | 1.7 | 6.1 | 0.00 | 0.00 | 0.00 | 77 | 1012.3 |
| 20260510005534 | 67 | 193 | 2.6 | 6.1 | 0.00 | 0.00 | 0.00 | 77 | 1012.3 |
| 20260510005032 | 67 | 286 | 2.6 | 8.7 | 0.00 | 0.00 | 0.00 | 78 | 1012.3 |
| 20260510004548 | 67 | 244 | 2.6 | 8.7 | 0.00 | 0.00 | 0.00 | 77 | 1012.4 |
| 20260510004033 | 67 | 301 | 3.5 | 8.7 | 0.00 | 0.00 | 0.00 | 77 | 1012.3 |
| 20260510003532 | 67 | 295 | 3.5 | 7.8 | 0.00 | 0.00 | 0.00 | 76 | 1012.4 |
| 20260510003049 | 68 | 273 | 3.5 | 7.8 | 0.00 | 0.00 | 0.00 | 75 | 1012.3 |
| 20260510002531 | 68 | 266 | 3.5 | 7.8 | 0.00 | 0.00 | 0.00 | 75 | 1012.3 |
| 20260510002031 | 68 | 249 | 2.6 | 7.8 | 0.00 | 0.00 | 0.00 | 74 | 1012.2 |
| 20260510001554 | 69 | 285 | 3.5 | 7.8 | 0.00 | 0.00 | 0.00 | 74 | 1012.2 |
| 20260510001034 | 69 | 270 | 3.5 | 7.0 | 0.00 | 0.00 | 0.00 | 74 | 1012.1 |
| 20260510000536 | 69 | 236 | 2.6 | 7.0 | 0.00 | 0.00 | 0.00 | 73 | 1012.0 |
| 20260510000052 | 69 | 262 | 2.6 | 7.0 | 0.00 | 0.00 | 0.00 | 73 | 1012.0 |
| 20260509235532 | 69 | 295 | 2.6 | 6.1 | 0.00 | 0.00 | 0.00 | 73 | 1011.9 |
| 20260509235035 | 69 | 248 | 2.6 | 5.2 | 0.00 | 0.00 | 0.00 | 72 | 1011.9 |
| 20260509234547 | 69 | 233 | 1.7 | 6.1 | 0.00 | 0.00 | 0.00 | 72 | 1012.0 |
| 20260509234035 | 70 | 236 | 2.6 | 6.1 | 0.00 | 0.00 | 0.00 | 73 | 1011.9 |
| 20260509233535 | 69 | 245 | 2.6 | 6.1 | 0.00 | 0.00 | 0.00 | 73 | 1011.9 |
| 20260509233052 | 69 | 292 | 1.7 | 6.1 | 0.00 | 0.00 | 0.00 | 72 | 1011.9 |
| 20260509232534 | 69 | 223 | 2.6 | 6.1 | 0.00 | 0.00 | 0.00 | 72 | 1012.0 |
| 20260509232032 | 69 | 307 | 2.6 | 7.0 | 0.00 | 0.00 | 0.00 | 73 | 1011.9 |
| 20260509231549 | 69 | 301 | 2.6 | 7.0 | 0.00 | 0.00 | 0.00 | 73 | 1011.9 |
| 20260509231034 | 69 | 261 | 3.5 | 7.0 | 0.00 | 0.00 | 0.00 | 72 | 1011.9 |
| 20260509230532 | 70 | 267 | 2.6 | 7.0 | 0.00 | 0.00 | 0.00 | 72 | 1011.9 |
| 20260509230049 | 70 | 283 | 3.5 | 7.8 | 0.00 | 0.00 | 0.00 | 73 | 1011.9 |
| 20260509225535 | 70 | 273 | 1.7 | 7.8 | 0.00 | 0.00 | 0.00 | 74 | 1011.9 |
| 20260509225037 | 69 | 323 | 2.6 | 7.8 | 0.00 | 0.00 | 0.00 | 74 | 1012.0 |
| 20260509224558 | 69 | 217 | 1.7 | 7.0 | 0.00 | 0.00 | 0.00 | 74 | 1012.1 |
| 20260509224034 | 69 | 284 | 2.6 | 7.0 | 0.00 | 0.00 | 0.00 | 74 | 1012.3 |
| 20260509223535 | 69 | 225 | 3.5 | 7.0 | 0.00 | 0.00 | 0.00 | 74 | 1012.3 |
| 20260509223050 | 69 | 223 | 2.6 | 7.8 | 0.00 | 0.00 | 0.00 | 73 | 1012.3 |
| 20260509222534 | 69 | 224 | 3.5 | 7.8 | 0.00 | 0.00 | 0.00 | 73 | 1012.4 |
| 20260509222036 | 70 | 230 | 2.6 | 7.0 | 0.00 | 0.00 | 0.00 | 74 | 1012.5 |
| 20260509221604 | 70 | 256 | 2.6 | 6.1 | 0.00 | 0.00 | 0.00 | 74 | 1012.5 |
| 20260509221035 | 69 | 225 | 3.5 | 6.1 | 0.00 | 0.00 | 0.00 | 72 | 1012.5 |
| 20260509220535 | 70 | 207 | 2.6 | 10.4 | 0.00 | 0.00 | 0.00 | 73 | 1012.5 |
| 20260509220045 | 70 | 229 | 2.6 | 10.4 | 0.00 | 0.00 | 0.00 | 74 | 1012.5 |
| 20260509215535 | 70 | 303 | 3.5 | 7.8 | 0.00 | 0.00 | 0.00 | 73 | 1012.6 |